[Date Prev][Date Next][Thread Prev][Thread Next] - [Date Index][Thread Index][Author Index]
2 Line ISS Keps 7-28
- Subject: [sarex] 2 Line ISS Keps 7-28
- From: "Dave Larsen PhD" <doc@xxxxxxxxxxx>
- Date: Sun, 28 Jul 2002 03:03:09 -0700
ISS
1 25544U 98067A 02209.11595116 .00019867 00000-0 25131-3 0 7042
2 25544 51.6359 207.4573 0008901 46.6960 67.5769 15.59471843210413
----
Via the sarex mailing list at AMSAT.ORG courtesy of AMSAT-NA.
To unsubscribe, send "unsubscribe sarex" to Majordomo@amsat.org
AMSAT Home